RH
20 21 22 24 24 23 24 27 26 30 37 45 54 57 59 68 78 82 81 82 73 64 63 54 41 36 32 30 28 29 29 32 29 23 22 26 29 37 34 37 27 28 30
18 17 19 23 25 26 29 29 28 31 40 48 54 56 65 86 91 89 79 72 65 57 52 48 37 32 30 28 28 29 30 31 31 26 28 31 26 26 34 29 27 26 25
17 14 14 17 24 26 27 30 29 33 43 49 56 60 81 90 92 84 72 68 70 66 54 40 33 31 31 33 33 34 31 30 30 30 28 31 31 25 18 24 23 26 24
16 16 15 14 16 24 28 30 32 37 47 56 61 69 80 79 78 75 69 63 56 50 43 36 34 33 32 34 31 31 27 29 28 30 27 33 29 26 27 19 22 21 24
15 15 16 18 17 17 27 34 36 40 53 59 64 73 70 74 74 72 66 57 51 39 34 32 32 32 33 32 33 31 28 27 29 30 30 27 27 27 30 36 25 24 24
14 15 16 18 20 21 26 38 41 48 56 65 65 67 67 66 68 66 63 52 46 37 35 33 33 33 34 34 33 34 34 32 35 32 30 30 29 27 29 33 32 32 28
16 16 18 20 21 24 26 41 47 52 60 63 62 64 68 65 65 64 63 50 42 34 32 32 32 35 36 35 36 38 40 41 39 36 31 30 31 31 32 34 37 36 33
18 22 22 22 23 29 30 42 51 53 58 61 62 66 63 63 66 58 48 41 39 36 31 30 31 33 33 33 39 41 40 42 39 38 37 35 34 34 36 38 41 45 38
23 28 28 24 24 30 33 45 53 53 57 61 64 63 63 60 52 42 36 33 32 32 30 30 30 30 30 31 32 34 30 31 32 34 35 38 38 38 40 42 43 46 52
28 31 28 26 22 31 36 50 52 54 58 62 60 57 48 42 38 36 34 34 35 31 30 30 31 30 30 30 30 29 31 30 30 34 37 39 40 40 42 44 45 44 46
31 38 30 25 26 35 44 51 53 56 58 57 50 45 42 36 34 32 31 31 31 30 30 29 28 28 28 27 26 26 28 31 34 38 40 41 43 44 43 42 41 43 44
36 44 38 34 38 45 54 54 55 56 53 48 46 41 35 33 33 33 31 30 29 27 27 26 26 27 27 26 25 25 28 33 36 39 42 44 42 45 43 42 42 45 47
36 48 47 48 49 59 58 55 54 52 48 44 39 34 34 35 35 34 33 28 27 27 27 27 27 27 29 28 26 29 32 35 40 42 45 47 48 47 44 46 49 51 54
48 52 52 52 54 60 55 53 51 47 42 38 33 32 31 30 29 28 28 28 28 29 29 29 30 30 29 30 31 38 41 44 44 44 46 47 50 48 49 57 60 59 59
59 60 59 56 58 56 50 46 44 40 36 34 33 32 30 30 30 29 29 29 30 31 32 31 31 32 33 28 38 47 47 45 44 45 45 44 44 54 58 62 66 67 68
74 68 61 60 51 46 43 40 36 35 35 35 34 33 32 31 32 31 31 33 34 34 34 33 32 33 31 30 36 65 57 50 45 45 44 46 47 47 53 60 60 61 64
72 64 60 50 44 40 37 37 37 39 40 40 36 35 34 33 32 32 34 35 35 35 34 34 34 32 35 33 43 66 61 54 49 47 48 49 49 54 56 57 57 64 69
64 58 51 48 42 40 40 40 41 42 43 41 39 34 33 32 32 34 37 37 36 34 33 34 35 35 34 35 42 67 61 49 48 47 49 52 52 55 56 60 72 80 86
53 50 46 45 49 48 50 47 47 41 38 36 35 32 32 31 33 35 35 35 34 34 33 36 35 36 34 40 55 69 59 49 49 48 49 51 55 53 58 65 83 87 66
52 54 57 68 82 76 71 68 60 55 54 40 30 30 30 32 36 37 37 37 37 37 37 34 35 36 40 41 56 67 60 54 53 54 55 52 52 58 63 69 76 71 67
60 60 57 68 62 60 47 39 36 33 31 29 30 33 34 34 38 38 37 37 38 38 35 34 33 34 38 45 52 62 68 64 65 66 57 57 60 65 67 68 71 70 68
43 39 37 35 34 34 35 34 33 32 33 35 35 34 36 37 38 38 38 38 38 36 32 31 35 33 35 40 46 57 66 67 65 61 62 70 70 69 67 68 66 70 75
60 49 40 42 43 43 42 41 38 35 32 31 35 38 38 37 37 38 39 37 37 34 32 35 37 37 38 39 42 49 58 63 63 65 70 69 68 66 62 60 66 66 66
64 57 50 42 39 38 37 37 35 32 32 36 38 38 38 37 41 40 40 37 35 35 39 36 38 40 41 42 47 64 68 67 70 77 76 70 62 54 57 59 62 65 69
41 38 37 37 38 38 37 35 33 32 35 37 39 42 41 38 39 41 38 37 41 47 52 48 50 48 50 54 71 75 76 75 76 72 75 63 53 60 61 64 70 73 77
40 38 38 38 38 37 36 34 35 37 39 39 38 39 40 40 39 37 33 37 33 30 32 62 66 66 67 72 79 79 76 75 75 76 65 58 66 67 70 75 80 86 89
Wind_Speed
19 24 26 27 30 31 29 28 24 22 21 22 23 23 21 21 21 22 21 19 18 17 17 16 12 10 7 7 5 4 3 4 8 5 4 4 3 4 6 6 6 6 6
23 23 29 29 30 31 30 28 28 24 24 22 22 22 20 19 18 16 18 18 18 18 17 17 15 11 9 8 6 4 3 5 8 5 4 2 4 2 4 7 8 6 7
23 23 23 28 28 30 30 29 28 26 25 23 22 19 22 18 17 19 20 19 21 22 19 15 14 13 9 9 7 5 5 4 4 7 4 2 2 7 6 6 7 6 8
19 19 21 21 27 30 29 28 29 26 26 25 26 27 21 19 18 26 22 21 18 20 18 15 13 12 10 9 8 6 6 4 3 1 3 2 3 2 4 2 6 10 10
14 15 16 21 26 26 29 27 26 26 26 28 26 27 21 19 25 26 26 24 20 19 20 18 14 13 11 9 8 7 6 4 3 2 2 3 5 8 6 6 6 16 15
10 11 14 18 20 24 21 26 26 26 27 28 25 26 25 27 28 29 28 28 23 20 16 15 14 11 12 9 8 6 5 3 2 1 1 2 4 6 7 6 11 15 18
11 13 14 13 17 20 24 23 25 26 27 27 26 26 26 26 29 33 31 30 26 25 20 16 12 11 11 9 7 5 3 2 0 2 3 4 7 9 10 12 13 11 19
12 11 15 14 17 19 23 24 26 26 27 27 25 24 25 25 26 27 31 27 25 23 20 17 12 12 10 9 6 4 3 1 1 2 4 7 8 9 11 12 14 10 11
9 13 16 15 17 18 23 24 26 25 26 26 26 24 24 25 27 28 27 30 24 22 19 17 13 11 9 7 6 3 2 1 2 4 7 8 9 11 12 14 15 14 10
9 13 14 13 16 19 21 25 28 27 26 26 26 26 24 24 30 30 29 30 25 21 17 16 13 11 8 6 4 2 1 2 4 6 8 9 11 12 14 15 16 17 19
11 11 11 12 10 16 21 25 26 26 27 26 26 26 25 27 31 33 29 27 23 20 16 14 12 9 7 5 3 1 1 4 7 8 10 11 12 14 15 16 17 18 19
7 9 11 4 7 14 18 22 25 26 27 26 27 27 30 32 33 30 27 23 21 17 14 12 10 8 6 3 1 1 3 6 9 10 11 13 13 15 16 17 18 20 21
6 5 6 4 7 11 17 21 23 25 27 28 29 31 30 32 30 29 25 22 19 16 13 11 9 7 4 2 1 3 6 8 10 11 12 14 15 17 17 18 20 21 22
5 5 4 6 8 12 19 22 23 25 28 30 31 31 30 31 29 26 23 20 17 15 12 9 7 5 2 0 2 5 8 10 11 13 14 15 16 18 18 20 21 22 24
5 3 5 8 9 15 20 21 22 26 30 31 31 30 30 29 26 24 21 19 16 13 11 9 6 3 1 1 4 6 9 12 14 15 16 16 17 18 20 21 21 24 24
3 5 7 12 13 16 18 22 25 27 30 31 31 30 28 26 24 23 20 17 14 12 9 7 4 2 1 5 6 7 10 13 15 16 17 18 19 19 19 22 23 25 27
10 10 11 13 15 18 21 23 27 31 31 32 30 28 25 25 22 21 18 15 12 10 7 5 2 1 2 7 7 9 11 14 15 16 18 19 19 20 21 22 25 25 30
12 12 12 14 19 23 22 25 29 30 31 29 27 24 24 23 20 18 15 12 10 8 5 3 0 2 4 10 9 11 12 14 15 16 18 19 20 20 23 24 26 26 28
12 12 18 22 24 23 26 26 29 29 28 25 23 22 22 22 18 16 13 10 8 6 3 0 2 4 5 9 10 11 13 15 16 17 18 20 21 22 23 26 27 27 28
16 18 22 25 25 22 23 26 25 25 23 22 22 20 20 19 17 14 11 8 6 3 0 3 4 6 7 7 9 12 13 16 17 18 20 21 21 22 25 28 27 28 28
19 23 23 23 24 25 26 25 24 22 23 23 22 20 19 19 15 12 9 7 4 1 2 4 6 6 7 9 10 12 14 15 18 20 20 20 23 26 29 29 28 27 28
17 20 21 21 22 22 24 24 23 23 24 25 24 21 19 14 11 10 7 4 2 2 4 5 7 7 8 9 11 13 14 17 20 21 22 23 26 30 28 27 23 24 26
15 18 20 21 19 19 22 25 21 26 28 26 23 18 15 12 9 7 5 2 2 4 5 7 8 10 11 12 12 14 17 19 22 22 24 28 29 26 23 21 23 20 18
17 20 21 20 20 20 23 28 27 26 26 22 17 14 12 9 7 5 3 1 2 4 5 8 10 12 13 13 13 17 20 21 22 23 25 26 24 20 20 19 19 18 19
17 17 18 19 20 24 24 25 26 24 21 17 15 12 9 7 5 3 1 1 2 3 6 7 10 12 14 15 18 20 22 23 23 28 23 21 17 18 18 18 19 20 21
18 20 21 23 22 23 24 23 19 18 18 15 12 9 7 4 3 1 2 4 5 8 8 7 8 12 13 15 18 20 21 23 24 20 17 16 17 17 18 20 22 23 23
Wind_Direction
246 239 238 238 237 233 229 226 225 211 204 199 197 201 195 194 189 194 179 177 176 172 169 163 153 143 150 140 129 115 77 28 360 335 331 244 216 229 238 241 273 268 286
242 241 237 231 233 230 227 226 221 211 201 198 198 196 176 159 166 158 163 169 164 163 169 167 151 144 141 126 114 114 103 60 27 7 286 324 190 205 247 237 281 280 291
250 244 240 235 226 231 225 219 220 207 198 195 188 176 149 155 163 172 168 172 168 164 161 162 152 143 144 126 111 95 89 78 56 39 9 314 322 360 259 239 272 287 294
247 251 252 242 234 225 225 219 213 205 195 189 181 173 169 162 165 163 164 161 152 151 157 155 143 140 137 125 114 100 82 71 62 100 42 20 333 316 307 249 271 296 296
245 251 246 244 251 241 220 213 210 202 190 188 180 172 175 169 155 160 156 154 152 146 151 153 140 137 133 126 119 105 94 78 74 34 345 324 278 261 261 294 304 308 303
247 250 254 260 243 244 239 202 203 196 187 179 179 181 176 157 152 150 150 151 149 141 144 144 138 137 130 125 118 109 103 99 88 5 330 308 295 302 295 301 304 303 299
280 265 257 245 237 230 232 203 200 193 182 182 183 185 170 165 160 156 152 150 148 149 144 138 143 136 131 127 121 128 119 104 102 292 297 285 277 284 287 291 292 294 298
275 303 286 237 237 221 220 198 202 190 179 180 178 173 160 162 159 155 151 148 145 151 146 139 149 134 131 127 130 126 130 160 279 285 289 286 283 284 286 288 299 299 289
286 310 312 266 226 216 218 196 197 185 176 172 164 157 161 158 151 147 142 141 144 143 144 141 140 135 133 135 133 144 149 240 276 287 280 278 285 286 286 287 288 292 297
289 308 324 276 226 217 201 197 193 175 168 162 156 151 154 152 141 139 138 141 139 144 143 140 139 137 137 132 131 144 203 284 285 279 280 286 290 291 290 289 287 284 286
288 309 319 292 214 215 182 189 177 162 156 153 145 144 147 143 135 138 137 136 135 140 142 141 141 140 137 134 145 153 270 280 281 281 285 290 291 290 291 293 291 288 287
291 307 307 289 216 193 158 172 161 149 147 142 140 141 141 134 130 128 131 133 138 138 140 139 137 134 134 135 141 281 284 284 285 289 290 290 293 294 295 294 292 293 292
294 304 287 152 192 147 148 153 150 143 138 139 137 137 134 127 126 128 132 136 135 133 134 131 132 133 130 127 305 302 292 286 289 291 290 292 295 296 297 296 297 296 295
308 303 209 147 169 145 138 146 143 142 136 136 136 131 126 125 127 131 133 131 133 130 128 129 128 124 117 25 315 303 294 293 293 291 290 291 291 293 299 304 302 302 303
311 235 159 161 140 134 133 136 140 137 134 132 128 122 123 125 127 127 128 128 126 126 127 126 122 110 78 312 300 306 303 299 297 295 295 294 296 296 295 295 296 300 301
224 177 157 135 132 131 134 141 138 131 130 123 118 120 122 125 125 125 125 124 123 122 123 122 120 102 348 280 310 309 306 302 300 299 301 301 300 299 299 297 298 297 300
161 166 154 139 137 133 143 142 131 123 117 114 117 121 125 122 124 122 122 122 122 124 121 119 104 326 290 291 312 310 306 302 299 299 301 302 301 304 302 302 301 304 300
146 144 144 130 127 131 132 129 122 117 115 114 117 122 123 120 122 120 120 121 122 123 126 123 13 296 293 298 315 316 310 302 300 299 299 300 302 303 304 305 305 302 298
124 130 125 118 118 121 128 121 111 109 110 114 119 124 125 122 123 120 122 123 122 119 112 213 290 298 303 298 316 324 318 309 304 302 303 305 304 305 306 309 308 305 305
113 113 111 108 111 117 117 109 107 112 119 126 123 125 121 120 122 124 122 117 115 119 54 299 294 293 309 312 322 327 316 312 313 314 309 307 306 308 311 310 312 308 309
112 116 116 119 130 138 132 125 124 120 122 121 119 116 120 122 120 119 114 113 112 73 300 299 306 303 306 310 309 318 320 316 315 308 309 311 310 311 310 311 310 304 306
120 119 118 123 129 129 123 117 114 119 118 120 119 119 118 116 116 114 116 109 77 312 315 323 325 318 313 315 314 314 314 311 309 309 310 309 307 312 312 311 307 308 309
84 90 108 106 103 108 117 109 116 125 126 123 117 113 112 110 113 117 115 109 5 340 332 329 320 321 324 319 316 314 314 315 313 310 308 310 312 312 311 311 311 313 310
128 132 126 116 109 109 113 119 128 131 125 114 114 114 114 116 109 104 88 35 339 333 328 327 327 325 321 321 324 321 320 318 315 313 312 313 311 311 313 316 315 315 312
126 127 118 111 108 114 114 124 130 126 115 116 116 115 116 111 105 94 38 350 353 335 329 326 320 318 318 319 319 317 316 312 314 317 317 312 316 318 319 318 315 315 312
118 109 112 112 111 115 117 120 121 122 119 117 119 118 118 115 104 34 344 325 321 325 315 302 309 313 308 314 318 317 315 316 317 317 310 316 317 315 317 315 313 311 310